When you browse on this site, cookies collect data to enhance your experience and personalize the content and advertising you see.
Visit our Privacy Policy to learn more. By continuing to use the site, you agree to this use of cookies and data.
  • In Hungary
  • List of Countries
  • For 7 days
  • Water Temperature
  • Satellite Maps
  • Weather Map
  • News
  • Weather Widgets
  • user-avatar
    Login

    Hourly Weather Papalotla

    Today, 23 February, Saturday

    Time Temperature Precipitation Wind Pressure Humidity
    00:00 +15°C° 0 mm 1 mps 579 mmHg 46%
    01:00 +14°C° 0 mm 1 mps 579 mmHg 48%
    02:00 +13°C° 0 mm 1 mps 578 mmHg 50%
    03:00 +12°C° 0 mm 0 mps 578 mmHg 51%
    04:00 +12°C° 0 mm 0 mps 578 mmHg 52%
    05:00 +11°C° 0 mm 0 mps 578 mmHg 53%
    06:00 +13°C° 0 mm 0 mps 579 mmHg 49%
    07:00 +16°C° 0 mm 1 mps 580 mmHg 45%
    08:00 +18°C° 0 mm 1 mps 581 mmHg 41%
    09:00 +20°C° 0 mm 1 mps 582 mmHg 37%
    10:00 +23°C° 0 mm 1 mps 583 mmHg 32%
    11:00 +25°C° 0 mm 1 mps 583 mmHg 28%
    12:00 +25°C° 0 mm 1 mps 583 mmHg 26%
    13:00 +26°C° 0 mm 2 mps 583 mmHg 25%
    14:00 +26°C° 0 mm 3 mps 582 mmHg 23%
    15:00 +25°C° 0 mm 3 mps 582 mmHg 26%
    16:00 +24°C° 0 mm 3 mps 582 mmHg 29%
    17:00 +22°C° 0 mm 3 mps 581 mmHg 32%
    18:00 +21°C° 0 mm 2 mps 581 mmHg 35%
    19:00 +21°C° 0 mm 1 mps 582 mmHg 38%
    20:00 +20°C° 0 mm 1 mps 582 mmHg 41%
    21:00 +19°C° 0 mm 1 mps 582 mmHg 45%
    22:00 +18°C° 0 mm 1 mps 582 mmHg 48%
    23:00 +16°C° 0 mm 2 mps 582 mmHg 52%

    Tomorrow, 24 February, Sunday

    Time Temperature Precipitation Wind Pressure Humidity
    00:00 +16°C° 0 mm 2 mps 581 mmHg 54%
    01:00 +15°C° 0 mm 2 mps 581 mmHg 55%
    02:00 +14°C° 0 mm 2 mps 580 mmHg 57%
    03:00 +14°C° 0 mm 2 mps 580 mmHg 60%
    04:00 +13°C° 0 mm 2 mps 580 mmHg 64%
    05:00 +13°C° 0 mm 2 mps 580 mmHg 67%
    06:00 +13°C° 0 mm 3 mps 581 mmHg 65%
    07:00 +14°C° 0 mm 3 mps 582 mmHg 62%
    08:00 +16°C° 0 mm 3 mps 583 mmHg 60%
    09:00 +18°C° 0 mm 3 mps 583 mmHg 53%
    10:00 +20°C° 0 mm 3 mps 584 mmHg 46%
    11:00 +21°C° 0 mm 3 mps 585 mmHg 39%
    12:00 +21°C° 0.1 mm 3 mps 584 mmHg 40%
    13:00 +21°C° 0.1 mm 3 mps 583 mmHg 41%
    14:00 +21°C° 0.1 mm 4 mps 583 mmHg 42%
    15:00 +20°C° 0.1 mm 4 mps 582 mmHg 47%
    16:00 +19°C° 0.1 mm 4 mps 581 mmHg 52%
    17:00 +18°C° 0.1 mm 4 mps 581 mmHg 57%
    18:00 +17°C° 0 mm 3 mps 581 mmHg 62%
    19:00 +16°C° 0 mm 3 mps 581 mmHg 66%
    20:00 +14°C° 0 mm 3 mps 581 mmHg 70%
    21:00 +13°C° 0 mm 3 mps 581 mmHg 72%
    22:00 +14°C° 0 mm 2 mps 581 mmHg 74%
    23:00 +13°C° 0 mm 2 mps 581 mmHg 76%

    Day after tomorrow, 25 February, Monday

    Time Temperature Precipitation Wind Pressure Humidity
    00:00 +13°C° 0 mm 2 mps 581 mmHg 77%
    01:00 +13°C° 0 mm 2 mps 580 mmHg 79%
    02:00 +12°C° 0 mm 2 mps 580 mmHg 81%
    03:00 +12°C° 0 mm 2 mps 580 mmHg 82%
    04:00 +12°C° 0 mm 2 mps 580 mmHg 82%
    05:00 +12°C° 0 mm 2 mps 580 mmHg 83%
    06:00 +13°C° 0 mm 2 mps 581 mmHg 76%
    07:00 +14°C° 0 mm 2 mps 582 mmHg 70%
    08:00 +16°C° 0 mm 2 mps 583 mmHg 63%
    09:00 +18°C° 0 mm 2 mps 584 mmHg 55%
    10:00 +21°C° 0 mm 1 mps 584 mmHg 47%
    11:00 +23°C° 0 mm 1 mps 585 mmHg 40%
    12:00 +23°C° 0.1 mm 1 mps 584 mmHg 38%
    13:00 +24°C° 0.1 mm 2 mps 584 mmHg 36%
    14:00 +24°C° 0.1 mm 2 mps 583 mmHg 34%
    15:00 +23°C° 0.5 mm 2 mps 582 mmHg 38%
    16:00 +21°C° 0.5 mm 3 mps 582 mmHg 42%
    17:00 +20°C° 0.5 mm 3 mps 581 mmHg 46%
    18:00 +19°C° 0.8 mm 2 mps 582 mmHg 52%
    19:00 +18°C° 0.8 mm 2 mps 582 mmHg 58%
    20:00 +18°C° 0.8 mm 1 mps 582 mmHg 64%
    21:00 +16°C° 0.6 mm 1 mps 582 mmHg 67%
    22:00 +16°C° 0.6 mm 1 mps 582 mmHg 69%
    23:00 +15°C° 0.6 mm 1 mps 582 mmHg 71%

    26 February, Tuesday

    Time Temperature Precipitation Wind Pressure Humidity
    00:00 +15°C° 0.2 mm 1 mps 581 mmHg 72%
    01:00 +14°C° 0.2 mm 1 mps 581 mmHg 73%
    02:00 +14°C° 0.2 mm 1 mps 580 mmHg 74%
    03:00 +14°C° 0 mm 1 mps 580 mmHg 74%
    04:00 +13°C° 0 mm 1 mps 580 mmHg 74%
    05:00 +13°C° 0 mm 1 mps 580 mmHg 74%
    06:00 +14°C° 0 mm 1 mps 581 mmHg 68%
    07:00 +16°C° 0 mm 1 mps 582 mmHg 62%
    08:00 +18°C° 0 mm 1 mps 583 mmHg 56%
    09:00 +20°C° 0 mm 1 mps 583 mmHg 50%
    10:00 +22°C° 0 mm 1 mps 584 mmHg 43%
    11:00 +24°C° 0 mm 1 mps 584 mmHg 36%
    12:00 +24°C° 0 mm 1 mps 584 mmHg 34%
    13:00 +25°C° 0 mm 1 mps 583 mmHg 31%
    14:00 +26°C° 0 mm 2 mps 583 mmHg 28%
    15:00 +25°C° 0.2 mm 2 mps 583 mmHg 31%
    16:00 +24°C° 0.2 mm 2 mps 582 mmHg 34%
    17:00 +23°C° 0.2 mm 2 mps 582 mmHg 36%
    18:00 +22°C° 0.1 mm 1 mps 582 mmHg 41%
    19:00 +21°C° 0.1 mm 1 mps 582 mmHg 45%
    20:00 +20°C° 0.1 mm 1 mps 582 mmHg 49%
    21:00 +19°C° 0.1 mm 1 mps 582 mmHg 51%
    22:00 +18°C° 0.1 mm 1 mps 582 mmHg 54%
    23:00 +18°C° 0.1 mm 1 mps 581 mmHg 57%

    27 February, Wednesday

    Time Temperature Precipitation Wind Pressure Humidity
    00:00 +16°C° 0 mm 1 mps 581 mmHg 59%
    01:00 +16°C° 0 mm 1 mps 580 mmHg 61%
    02:00 +15°C° 0 mm 1 mps 580 mmHg 63%
    03:00 +15°C° 0 mm 1 mps 580 mmHg 64%
    04:00 +14°C° 0 mm 1 mps 580 mmHg 65%
    05:00 +14°C° 0 mm 1 mps 579 mmHg 66%
    06:00 +15°C° 0 mm 1 mps 580 mmHg 59%
    07:00 +18°C° 0 mm 1 mps 582 mmHg 52%
    08:00 +19°C° 0 mm 1 mps 583 mmHg 45%
    09:00 +21°C° 0 mm 1 mps 583 mmHg 37%
    10:00 +23°C° 0 mm 1 mps 584 mmHg 30%
    11:00 +25°C° 0 mm 1 mps 584 mmHg 22%
    12:00 +26°C° 0 mm 1 mps 584 mmHg 20%
    13:00 +26°C° 0 mm 1 mps 584 mmHg 18%
    14:00 +27°C° 0 mm 2 mps 583 mmHg 16%
    15:00 +26°C° 0 mm 2 mps 583 mmHg 19%
    16:00 +26°C° 0 mm 2 mps 583 mmHg 22%
    17:00 +25°C° 0 mm 2 mps 582 mmHg 24%
    18:00 +23°C° 0 mm 1 mps 582 mmHg 31%
    19:00 +22°C° 0 mm 1 mps 582 mmHg 37%
    20:00 +20°C° 0 mm 1 mps 582 mmHg 44%
    21:00 +19°C° 0 mm 1 mps 581 mmHg 47%
    22:00 +19°C° 0 mm 1 mps 581 mmHg 51%
    23:00 +18°C° 0 mm 1 mps 581 mmHg 54%

    28 February, Thursday

    Time Temperature Precipitation Wind Pressure Humidity
    00:00 +16°C° 0 mm 1 mps 580 mmHg 56%
    01:00 +16°C° 0 mm 1 mps 580 mmHg 58%
    02:00 +15°C° 0 mm 1 mps 579 mmHg 61%
    03:00 +15°C° 0 mm 1 mps 579 mmHg 62%
    04:00 +14°C° 0 mm 1 mps 579 mmHg 64%
    05:00 +13°C° 0 mm 0 mps 579 mmHg 65%
    06:00 +14°C° 0 mm 0 mps 580 mmHg 60%
    07:00 +16°C° 0 mm 0 mps 581 mmHg 54%
    08:00 +17°C° 0 mm 0 mps 581 mmHg 48%
    09:00 +21°C° 0 mm 1 mps 582 mmHg 41%
    10:00 +23°C° 0 mm 1 mps 582 mmHg 33%
    11:00 +25°C° 0 mm 2 mps 583 mmHg 25%
    12:00 +25°C° 0 mm 3 mps 582 mmHg 24%
    13:00 +26°C° 0 mm 3 mps 582 mmHg 23%
    14:00 +27°C° 0 mm 4 mps 581 mmHg 22%
    15:00 +26°C° 0 mm 4 mps 581 mmHg 26%
    16:00 +25°C° 0 mm 4 mps 580 mmHg 30%
    17:00 +23°C° 0 mm 5 mps 580 mmHg 34%
    18:00 +21°C° 0 mm 4 mps 580 mmHg 39%
    19:00 +20°C° 0 mm 3 mps 580 mmHg 43%
    20:00 +18°C° 0 mm 2 mps 580 mmHg 48%
    21:00 +19°C° 0 mm 1 mps 579 mmHg 50%
    22:00 +18°C° 0 mm 1 mps 579 mmHg 51%
    23:00 +18°C° 0 mm 1 mps 579 mmHg 53%
    Show more